Weather History for Logansport, IN

Change the Weather History Date:

Wednesday, September 4, 2013

  Actual Average Record
Temperature  
Mean Temperature 63 °F -  
Max Temperature 80 °F 80 °F 82 °F (2014)
Min Temperature 46 °F 57 °F 46 °F (2013)
Degree Days  
Heating Degree Days 2    
Growing Degree Days 13 (Base 50)    
Moisture  
Dew Point 54 °F    
Average Humidity 75    
Maximum Humidity 100    
Minimum Humidity 37    
Precipitation  
Precipitation 0.00 in - - ()
Sea Level Pressure  
Sea Level Pressure 30.12 in    
Wind  
Wind Speed 2 mph (West)    
Max Wind Speed 8 mph    
Max Gust Speed -    
Visibility 7 miles    
Events Fog    
Averages and records for this station are not official NWS values.
T = Trace of Precipitation, MM = Missing Value Source: NWS Daily Summary

Daily Weather History Graph

Daily Weather History Graph

Search for Another Location

Airport:

Trip Planner

Search our weather history database for the weather conditions in past years. The results will help you decide how hot, cold, wet, or windy it might be!

Date:

Astronomy

Sep. 04, 2013 Rise Set
Actual Time 7:15 AM EDT 8:12 PM EDT
Civil Twilight 6:47 AM EDT 8:40 PM EDT
Nautical Twilight 6:14 AM EDT 9:13 PM EDT
Astronomical Twilight 5:39 AM EDT 9:47 PM EDT
Moon 6:27 AM EDT (9/4) 7:31 PM EDT (9/4)
Length of Visible Light 13h 52m
Length of Day
12h 56m
Waning Crescent, 1% of the Moon is Illuminated
Sep 4
Waning Crescent
Sep 5
New
Sep 12
First Quarter
Sep 19
Full
Sep 26
Last Quarter

Hourly Weather History & Observations

Time (EDT) Temp. Heat Index Dew Point Humidity Pressure Visibility Wind Dir Wind Speed Gust Speed Precip Events Conditions
12:15 AM 53.6 °F - 53.6 °F 100% 30.08 in 10.0 mi West 3.5 mph - N/A   Clear
12:35 AM 53.6 °F - 51.8 °F 94% 30.08 in 7.0 mi Calm Calm - N/A   Clear
12:55 AM 51.8 °F - 51.8 °F 100% 30.08 in 1.8 mi Calm Calm - N/A   Mist
1:15 AM 51.8 °F - 50.0 °F 94% 30.08 in 7.0 mi Calm Calm - N/A   Clear
1:35 AM 51.8 °F - 50.0 °F 94% 30.09 in 5.0 mi Calm Calm - N/A   Clear
1:55 AM 51.8 °F - 50.0 °F 94% 30.09 in 4.0 mi Calm Calm - N/A   Clear
2:15 AM 51.8 °F - 50.0 °F 94% 30.09 in 5.0 mi Calm Calm - N/A   Clear
2:35 AM 51.8 °F - 50.0 °F 94% 30.09 in 4.0 mi Calm Calm - N/A   Clear
2:55 AM 51.8 °F - 50.0 °F 94% 30.09 in 3.0 mi Calm Calm - N/A   Clear
3:15 AM 51.8 °F - 50.0 °F 94% 30.09 in 5.0 mi Calm Calm - N/A   Clear
3:35 AM 50.0 °F - 50.0 °F 100% 30.10 in 2.5 mi Calm Calm - N/A   Clear
3:55 AM 51.8 °F - 50.0 °F 94% 30.10 in 3.0 mi Calm Calm - N/A   Clear
4:15 AM 50.0 °F - 48.2 °F 94% 30.11 in 1.2 mi Calm Calm - N/A   Mist
4:35 AM 48.2 °F - 46.4 °F 93% 30.11 in 0.5 mi Calm Calm - N/A Fog Fog
4:55 AM 50.0 °F - 48.2 °F 94% 30.11 in 0.2 mi Calm Calm - N/A Fog Fog
5:15 AM 50.0 °F - 48.2 °F 94% 30.11 in 0.2 mi Calm Calm - N/A Fog Fog
5:35 AM 50.0 °F - 48.2 °F 94% 30.11 in 0.2 mi Calm Calm - N/A Fog Fog
5:55 AM 48.2 °F - 46.4 °F 93% 30.11 in 0.5 mi Calm Calm - N/A Fog Fog
6:15 AM 46.4 °F - 46.4 °F 100% 30.11 in 0.2 mi Calm Calm - N/A Fog Fog
6:35 AM 46.4 °F - 46.4 °F 100% 30.12 in 1.0 mi Calm Calm - N/A   Overcast
6:55 AM 48.2 °F - 46.4 °F 93% 30.13 in 2.5 mi Calm Calm - N/A   Scattered Clouds
7:15 AM 46.4 °F - 46.4 °F 100% 30.13 in 0.2 mi Calm Calm - N/A Fog Fog
7:35 AM 46.4 °F - 46.4 °F 100% 30.14 in 0.2 mi Calm Calm - N/A Fog Fog
7:55 AM 48.2 °F - 46.4 °F 93% 30.14 in 0.8 mi Calm Calm - N/A   Mostly Cloudy
8:15 AM 51.8 °F - 51.8 °F 100% 30.14 in 3.0 mi Calm Calm - N/A   Clear
8:35 AM 53.6 °F - 53.6 °F 100% 30.15 in 3.0 mi Calm Calm - N/A   Clear
8:55 AM 55.4 °F - 55.4 °F 100% 30.15 in 4.0 mi WSW 3.5 mph - N/A   Clear
9:15 AM 59.0 °F - 57.2 °F 94% 30.15 in 5.0 mi WSW 3.5 mph - N/A   Clear
9:35 AM 60.8 °F - 57.2 °F 88% 30.15 in 10.0 mi West 3.5 mph - N/A   Clear
9:55 AM 62.6 °F - 59.0 °F 88% 30.16 in 10.0 mi West 3.5 mph - N/A   Clear
10:15 AM 66.2 °F - 59.0 °F 78% 30.16 in 10.0 mi West 3.5 mph - N/A   Clear
10:35 AM 68.0 °F - 59.0 °F 73% 30.16 in 10.0 mi WSW 5.8 mph - N/A   Clear
10:55 AM 69.8 °F - 55.4 °F 60% 30.16 in 10.0 mi West 5.8 mph - N/A   Clear
11:15 AM 71.6 °F - 55.4 °F 57% 30.16 in 10.0 mi WSW 4.6 mph - N/A   Clear
11:35 AM 71.6 °F - 57.2 °F 60% 30.16 in 10.0 mi West 6.9 mph - N/A   Clear
11:55 AM 71.6 °F - 57.2 °F 60% 30.16 in 10.0 mi West 5.8 mph - N/A   Clear
12:15 PM 73.4 °F - 57.2 °F 57% 30.16 in 10.0 mi West 8.1 mph - N/A   Clear
12:35 PM 73.4 °F - 57.2 °F 57% 30.16 in 10.0 mi WNW 6.9 mph - N/A   Clear
12:55 PM 75.2 °F - 57.2 °F 53% 30.16 in 10.0 mi West 5.8 mph - N/A   Clear
1:15 PM 75.2 °F - 55.4 °F 50% 30.15 in 10.0 mi West 6.9 mph - N/A   Clear
1:35 PM 77.0 °F - 55.4 °F 47% 30.15 in 10.0 mi West 8.1 mph - N/A   Clear
1:55 PM 77.0 °F - 53.6 °F 44% 30.14 in 10.0 mi West 6.9 mph - N/A   Clear
2:15 PM 78.8 °F - 55.4 °F 44% 30.14 in 10.0 mi West 5.8 mph - N/A   Clear
2:35 PM 78.8 °F - 55.4 °F 44% 30.14 in 10.0 mi WNW 4.6 mph - N/A   Clear
2:55 PM 78.8 °F - 55.4 °F 44% 30.14 in 10.0 mi West 6.9 mph - N/A   Clear
3:15 PM 78.8 °F - 55.4 °F 44% 30.13 in 10.0 mi West 5.8 mph - N/A   Clear
3:35 PM 80.6 °F 80.3 °F 53.6 °F 39% 30.13 in 10.0 mi NW 5.8 mph - N/A   Clear
3:55 PM 80.6 °F 80.3 °F 53.6 °F 39% 30.13 in 10.0 mi NW 5.8 mph - N/A   Clear
4:15 PM 80.6 °F - 51.8 °F 37% 30.12 in 10.0 mi West 5.8 mph - N/A   Clear
4:35 PM 80.6 °F 80.3 °F 53.6 °F 39% 30.12 in 10.0 mi West 6.9 mph - N/A   Clear
4:55 PM 80.6 °F - 51.8 °F 37% 30.12 in 10.0 mi West 3.5 mph - N/A   Clear
5:15 PM 80.6 °F 80.3 °F 53.6 °F 39% 30.11 in 10.0 mi West 6.9 mph - N/A   Clear
5:35 PM 78.8 °F - 53.6 °F 42% 30.11 in 10.0 mi WNW 4.6 mph - N/A   Clear
5:55 PM 80.6 °F 80.3 °F 53.6 °F 39% 30.11 in 10.0 mi WNW 5.8 mph - N/A   Clear
6:15 PM 78.8 °F - 55.4 °F 44% 30.10 in 10.0 mi WNW 3.5 mph - N/A   Clear
6:35 PM 78.8 °F - 55.4 °F 44% 30.10 in 10.0 mi West 5.8 mph - N/A   Clear
6:55 PM 77.0 °F - 53.6 °F 44% 30.10 in 10.0 mi WNW 3.5 mph - N/A   Clear
7:15 PM 77.0 °F - 55.4 °F 47% 30.09 in 10.0 mi Calm Calm - N/A   Clear
7:35 PM 73.4 °F - 57.2 °F 57% 30.09 in 10.0 mi Calm Calm - N/A   Clear
7:55 PM 69.8 °F - 59.0 °F 68% 30.10 in 10.0 mi Calm Calm - N/A   Clear
8:15 PM 64.4 °F - 59.0 °F 83% 30.11 in 10.0 mi Calm Calm - N/A   Clear
8:35 PM 64.4 °F - 59.0 °F 83% 30.11 in 5.0 mi Calm Calm - N/A   Haze
8:55 PM 62.6 °F - 59.0 °F 88% 30.11 in 10.0 mi Calm Calm - N/A   Clear
9:15 PM 62.6 °F - 59.0 °F 88% 30.12 in 10.0 mi Calm Calm - N/A   Clear
9:35 PM 62.6 °F - 57.2 °F 82% 30.13 in 10.0 mi SSW 3.5 mph - N/A   Clear
9:55 PM 60.8 °F - 57.2 °F 88% 30.13 in 10.0 mi Calm Calm - N/A   Clear
10:15 PM 59.0 °F - 55.4 °F 88% 30.13 in 10.0 mi SW 3.5 mph - N/A   Clear
10:35 PM 59.0 °F - 57.2 °F 94% 30.14 in 10.0 mi Calm Calm - N/A   Clear
10:55 PM 57.2 °F - 55.4 °F 94% 30.14 in 10.0 mi Calm Calm - N/A   Clear
11:15 PM 57.2 °F - 55.4 °F 94% 30.14 in 10.0 mi Calm Calm - N/A   Clear
11:35 PM 57.2 °F - 55.4 °F 94% 30.14 in 10.0 mi Calm Calm - N/A   Clear
11:55 PM 59.0 °F - 55.4 °F 88% 30.14 in 10.0 mi Calm Calm - N/A   Clear